Bramble, Montserrat

5:28 PM AST on May 06, 2015 (GMT -0400)
Geralds | | Change Station
CLOSE
Current Station
Airport
Location: Geralds,
Elevation: 551 ft
Nearby Weather Stations

Elev 551 ft 16.79 °N, 62.19 °W | Updated 28 minutes ago

Haze
Haze
81 °F
Feels Like 83 °F
N
25
Wind Variable Wind from ESE

Today
High -- | Low -- °F
--% Chance of Precip.
Yesterday
High -- | Low -- °F
Precip. -- in
5:41 AM 6:29 PM
Waning Gibbous, 92% visible
Pressure 30.01 in
Visibility 6.2 miles
Clouds Few 2500 ft
Heat Index 83 °F
Dew Point 68 °F
Humidity 65%
Rainfall 0.00 in
Snow Depth Not available.
UV 2 out of 12
Pollen Not available.
Air Quality Not available.
Flu Activity Not available.
METAR TRPG 062100Z 12022KT 9999 HZ FEW025 27/20 Q1016

More Conditions Fewer Conditions

Pressure 30.01 in
Visibility 6.2 miles
Clouds Few 2500 ft
Heat Index 83 °F
Dew Point 68 °F
Humidity 65%
Rainfall 0.00 in
Snow Depth Not available.
UV 2 out of 12
Pollen Not available.
Air Quality Not available.
Flu Activity Not available.
METAR TRPG 062100Z 12022KT 9999 HZ FEW025 27/20 Q1016

More Conditions Fewer Conditions

10-Day Weather Forecast

Almanac

Astronomy

May. 06, 2015 Rise Set
Actual Time
Civil Twilight
Nautical Twilight
Astronomical Twilight
Moon
Length of Visible Light
Length of Day
Tomorrow will be .
, % of the Moon is Illuminated

Today's Extremes

Country Highs Country Lows

Community

WunderPhotos

Upload Photos

1,819,021 photos uploaded!

WunderBlogs® & News

Nearby

Air Quality

  Air Quality AQ Index Pollutant
Not available.

Snow Depth

Station Depth Elevation

Earthquake Activity

City Distance Mag. Time & Date
Minimum magnitude displayed is 2.5.

Coastal Water Temperatures

Place Temperature

Stations

Nearby Weather Stations

Station Location Temp. Windchill Dew Point Humidity Wind Precip. Elev Updated Type